STARLINK-36781, 67931

Orbit data source: Space-Track

STARLINK-36781, 67931 is a payload satellite owned by SpaceX/Seattle (US) in LEO that was launched on Sun, 22 Feb 2026 UTC via an FALCON 9 launch vehicle from the Air Force Eastern Test Range (AFETR). Payload-class satellites include a variety of spacecraft equipped with specific instruments for various scientific and technological missions. These include communications satellites like Starlink; space stations such as the ISS; scientific satellites like the Hubble; Earth observation satellites from companies like Planet Labs, Umbra, and HawkEye 360; GPS; miniature CubeSats for education and research; and military/defense satellites.

Loading next visibility...
Identifier
67931, 2026-036AD
Orbit
LEO
Country
Flag of USUS
Related business
Manufacturer
SpaceX/Seattle
Mission
Operational spacecraft
Bus & Motor
STARLINK V2MO, Unknown motor
Mass
575 kg wet, ~530 kg dry
Launch date (UTC)
2026-02-22 (2 months ago)
Launch vehicle
FALCON 9
Launch site
Air Force Eastern Test Range (AFETR)
Object type
Payload
Rocket body
Debris
Shape & HBR
Unknown shape, 17.7 m
Radar Cross Section
RCS unknown

Expand to show TLE details & history
Last TLE update: 12 hours ago

TLE from 12 hours ago
0 STARLINK-36781
1 67931U 26036AD  26103.85945384  .00008841  00000-0  33039-3 0  9993
2 67931  43.0023  46.3867 0001015 256.9335 103.1403 15.27583822  9109
Epoch: 2026-04-13T20:37Z
TLE epoch observation values (Epoch: 2026-04-13T20:37:36.811Z)
Latitude
-0.00006°
Longitude
-105.06075°
Altitude
482.972 km
Speed
7.626 km/s
True Right ascension
03h 05m 32s
True Declination
0° 00' 00"
Sunlit
Object was in daylight at epoch
Visualization orbit readout
Latitude
Unknown
Longitude
Unknown
Altitude
Unknown
Speed
Unknown
Apparent Right ascension
Unknown
Apparent Declination
Unknown
Sunlit
N/A
Visualization observer readout
Local Sidereal Time
15:09:51
Azimuth
Unknown
Elevation
Unknown
Doppler factor
Unknown
Orbital elements
Apogee altitude
485.679 km
Perigee altitude
484.286 km
Semi-major axis
6,863.119 km
Eccentricity
0.0001
Inclination
43.0023°
RAAN
46.3867°
Arg. of periapsis
256.9335°
True anomaly
103.15163°
Mean anomaly
103.1403°
Eccentric anomaly
103.14596°
Mean motion
3.81734 °/min
Orbital period
94.31 mins
BSTAR
0.00033039
Loading maneuver chart data...
Computing Atmospheric mass density...
Loading historical data...
Loading historical data...
Loading historical data...
Loading historical data...
Loading historical data...
Loading historical data...
Loading historical data...

Documentation

Showing up to 5 results
|